TimeEST,TemperatureF,Dew PointF,Humidity,Sea Level PressureIn,VisibilityMPH,Wind Direction,Wind SpeedMPH,Gust SpeedMPH,PrecipitationIn,Events,Conditions,WindDirDegrees,DateUTC
12:15 AM,41.9,40.1,93,30.11,10.0,West,8.1,-,N/A,,Overcast,280,2013-11-03 04:15:00
12:35 AM,42.1,40.1,93,30.11,7.0,West,8.1,-,N/A,,Overcast,280,2013-11-03 04:35:00
12:55 AM,41.9,39.7,92,30.12,10.0,WNW,8.1,-,N/A,,Overcast,290,2013-11-03 04:55:00
1:15 AM,42.1,39.6,91,30.12,10.0,WNW,6.9,-,N/A,,Overcast,290,2013-11-03 05:15:00
1:35 AM,42.1,39.2,90,30.12,10.0,WNW,8.1,-,N/A,,Overcast,300,2013-11-03 05:35:00
1:55 AM,41.9,38.3,87,30.12,10.0,WNW,6.9,-,N/A,,Overcast,300,2013-11-03 05:55:00
1:15 AM,41.9,37.9,86,30.13,10.0,WNW,6.9,-,N/A,,Overcast,300,2013-11-03 06:15:00
1:35 AM,41.4,37.8,87,30.13,7.0,WNW,4.6,-,N/A,,Overcast,300,2013-11-03 06:35:00
1:55 AM,41.2,37.9,88,30.14,7.0,WNW,5.8,-,N/A,,Overcast,290,2013-11-03 06:55:00
2:15 AM,41.0,38.3,90,30.14,10.0,NW,6.9,-,N/A,,Overcast,310,2013-11-03 07:15:00
2:35 AM,40.8,38.1,90,30.15,10.0,WNW,6.9,-,N/A,,Overcast,300,2013-11-03 07:35:00
2:55 AM,40.1,37.9,92,30.15,7.0,WNW,4.6,-,N/A,,Mostly Cloudy,300,2013-11-03 07:55:00
3:15 AM,39.6,37.6,93,30.16,10.0,WNW,6.9,-,N/A,,Overcast,300,2013-11-03 08:15:00
3:35 AM,39.4,37.4,93,30.17,10.0,WNW,4.6,-,N/A,,Overcast,300,2013-11-03 08:35:00
3:55 AM,38.8,37.0,93,30.17,10.0,WNW,4.6,-,N/A,,Overcast,300,2013-11-03 08:55:00
4:15 AM,38.3,36.9,95,30.18,5.0,WNW,4.6,-,N/A,,Overcast,300,2013-11-03 09:15:00
4:35 AM,37.4,36.3,96,30.19,10.0,NW,3.5,-,N/A,,Scattered Clouds,310,2013-11-03 09:35:00
4:55 AM,36.9,35.8,96,30.20,7.0,NW,3.5,-,N/A,,Clear,310,2013-11-03 09:55:00
5:15 AM,36.1,35.6,98,30.21,7.0,NW,3.5,-,N/A,,Clear,310,2013-11-03 10:15:00
5:35 AM,35.4,35.1,99,30.22,5.0,WNW,3.5,-,N/A,,Clear,300,2013-11-03 10:35:00
5:55 AM,34.5,34.0,98,30.22,4.0,Calm,Calm,-,N/A,,Clear,0,2013-11-03 10:55:00
6:15 AM,34.5,34.2,99,30.23,3.0,Calm,Calm,-,N/A,,Clear,0,2013-11-03 11:15:00
6:35 AM,34.0,33.8,99,30.24,2.0,WNW,3.5,-,N/A,,Clear,290,2013-11-03 11:35:00
6:55 AM,33.4,33.4,100,30.24,1.8,Calm,Calm,-,N/A,,Mist,0,2013-11-03 11:55:00
7:15 AM,33.1,33.1,100,30.25,0.8,Calm,Calm,-,N/A,,Mist,0,2013-11-03 12:15:00
7:35 AM,32.4,32.4,100,30.26,1.2,Calm,Calm,-,N/A,,Mostly Cloudy,0,2013-11-03 12:35:00
7:55 AM,32.4,32.4,100,30.28,1.2,Calm,Calm,-,N/A,,Overcast,0,2013-11-03 12:55:00
8:15 AM,32.9,32.9,100,30.28,0.5,Calm,Calm,-,N/A,Fog,Fog,0,2013-11-03 13:15:00
8:35 AM,34.2,34.2,100,30.28,0.5,Calm,Calm,-,N/A,Fog,Fog,0,2013-11-03 13:35:00
8:55 AM,36.3,36.3,100,30.29,2.0,Calm,Calm,-,N/A,,Overcast,0,2013-11-03 13:55:00
9:15 AM,37.8,37.8,100,30.30,3.0,Calm,Calm,-,N/A,,Overcast,0,2013-11-03 14:15:00
9:35 AM,39.4,39.4,100,30.31,5.0,ENE,5.8,-,N/A,,Overcast,70,2013-11-03 14:35:00
9:55 AM,40.8,40.5,99,30.32,7.0,ENE,5.8,-,N/A,,Overcast,70,2013-11-03 14:55:00
10:15 AM,41.2,39.6,94,30.33,7.0,East,4.6,-,N/A,,Overcast,80,2013-11-03 15:15:00
10:35 AM,41.7,39.2,91,30.34,7.0,East,5.8,-,N/A,,Overcast,90,2013-11-03 15:35:00
10:55 AM,42.4,38.8,87,30.34,10.0,Calm,Calm,-,N/A,,Overcast,0,2013-11-03 15:55:00
11:15 AM,43.5,38.7,83,30.34,7.0,East,5.8,-,N/A,,Overcast,100,2013-11-03 16:15:00
11:35 AM,43.9,38.7,82,30.34,10.0,ESE,4.6,-,N/A,,Overcast,120,2013-11-03 16:35:00
11:55 AM,45.0,37.0,74,30.33,10.0,East,3.5,-,N/A,,Overcast,90,2013-11-03 16:55:00
12:15 PM,46.0,36.5,69,30.33,7.0,ESE,3.5,-,N/A,,Overcast,110,2013-11-03 17:15:00
12:35 PM,46.6,36.5,68,30.33,10.0,SE,4.6,-,N/A,,Overcast,130,2013-11-03 17:35:00
12:55 PM,46.2,35.8,67,30.32,7.0,SE,4.6,-,N/A,,Mostly Cloudy,140,2013-11-03 17:55:00
1:15 PM,48.0,36.9,65,30.31,10.0,Calm,Calm,-,N/A,,Mostly Cloudy,0,2013-11-03 18:15:00
1:35 PM,48.6,36.7,64,30.30,7.0,SE,4.6,-,N/A,,Scattered Clouds,130,2013-11-03 18:35:00
1:55 PM,46.9,35.2,64,30.30,10.0,SE,5.8,-,N/A,,Mostly Cloudy,130,2013-11-03 18:55:00
2:15 PM,47.5,35.2,63,30.30,10.0,Calm,Calm,-,N/A,,Mostly Cloudy,0,2013-11-03 19:15:00
2:35 PM,48.7,35.1,59,30.30,10.0,East,3.5,-,N/A,,Scattered Clouds,100,2013-11-03 19:35:00
2:55 PM,48.7,34.3,58,30.30,10.0,SE,4.6,-,N/A,,Clear,130,2013-11-03 19:55:00
3:15 PM,49.1,34.5,57,30.30,10.0,East,5.8,-,N/A,,Mostly Cloudy,90,2013-11-03 20:15:00
3:35 PM,49.6,34.5,56,30.29,10.0,SE,6.9,-,N/A,,Scattered Clouds,140,2013-11-03 20:35:00
3:55 PM,49.5,33.8,55,30.29,7.0,ESE,4.6,-,N/A,,Scattered Clouds,120,2013-11-03 20:55:00
4:15 PM,48.4,34.3,58,30.30,10.0,SE,4.6,-,N/A,,Scattered Clouds,130,2013-11-03 21:15:00
4:35 PM,48.2,35.2,61,30.30,10.0,SE,5.8,-,N/A,,Mostly Cloudy,130,2013-11-03 21:35:00
4:55 PM,47.5,36.0,64,30.30,5.0,SE,5.8,-,N/A,,Haze,130,2013-11-03 21:55:00
5:15 PM,47.1,36.0,65,30.29,10.0,East,8.1,-,N/A,,Overcast,100,2013-11-03 22:15:00
5:35 PM,46.4,35.8,67,30.31,10.0,East,6.9,-,N/A,,Overcast,90,2013-11-03 22:35:00
5:55 PM,45.1,35.6,69,30.31,7.0,East,8.1,-,N/A,,Overcast,90,2013-11-03 22:55:00
6:15 PM,45.3,35.8,69,30.31,10.0,East,9.2,-,N/A,,Overcast,90,2013-11-03 23:15:00
6:35 PM,44.8,35.6,70,30.31,10.0,East,9.2,-,N/A,,Overcast,90,2013-11-03 23:35:00
6:55 PM,43.5,35.2,73,30.31,10.0,East,8.1,-,N/A,,Mostly Cloudy,90,2013-11-03 23:55:00
7:15 PM,42.8,34.9,74,30.32,10.0,East,9.2,-,N/A,,Mostly Cloudy,90,2013-11-04 00:15:00
7:35 PM,42.1,34.7,75,30.32,7.0,East,6.9,-,N/A,,Scattered Clouds,90,2013-11-04 00:35:00
7:55 PM,42.1,34.3,74,30.31,10.0,East,8.1,-,N/A,,Clear,100,2013-11-04 00:55:00
8:15 PM,41.9,34.3,75,30.31,10.0,East,6.9,-,N/A,,Clear,100,2013-11-04 01:15:00
8:35 PM,41.9,34.2,74,30.32,5.0,East,6.9,-,N/A,,Haze,100,2013-11-04 01:35:00
8:55 PM,41.7,34.0,74,30.32,10.0,ESE,6.9,-,N/A,,Clear,110,2013-11-04 01:55:00
9:15 PM,41.4,34.0,75,30.32,10.0,East,5.8,-,N/A,,Clear,100,2013-11-04 02:15:00
9:35 PM,41.0,33.8,76,30.33,7.0,ESE,6.9,-,N/A,,Clear,110,2013-11-04 02:35:00
9:55 PM,40.8,33.8,76,30.34,5.0,East,6.9,-,N/A,,Haze,100,2013-11-04 02:55:00
10:15 PM,40.1,33.8,78,30.34,10.0,East,6.9,-,N/A,,Clear,100,2013-11-04 03:15:00
10:35 PM,40.1,33.8,78,30.35,7.0,East,6.9,-,N/A,,Clear,100,2013-11-04 03:35:00
10:55 PM,39.9,33.8,79,30.35,7.0,East,5.8,-,N/A,,Clear,100,2013-11-04 03:55:00